Location: Chevoux
(46.3801°N, 4.9476°E)
Time: 17:31:17
(UTC+00:00)

Cosmos 1428 Rocket - Pass Details

Date: 28 January 2021
Orbit: 947 x 989 km, 82.9° (Epoch: 28 February)

Event Time Altitude Azimuth Distance (km) Brightness Sun altitude
Rises 18:01:25 0° 186° (S) 3,678 7.7 -14.3°
Reaches altitude 10° 18:03:55 10° 186° (S) 2,737 7.1 -14.7°
Maximum altitude 18:10:13 89° 98° (E) 996 4.5 -15.8°
Drops below altitude 10° 18:16:35 10° 9° (N) 2,758 6.7 -16.9°
Sets 18:19:06 0° 9° (N) 3,709 7.4 -17.3°
